Location: Central Falls
(41.8900°N, 71.3929°W)
Time: 15:56:17
(UTC+00:00)

Vanguard 1 - Pass Details

Date: 07 December 2023
Orbit: 653 x 3826 km, 34.3° (Epoch: 24 February)

Event Time Altitude Azimuth Distance (km) Brightness Sun altitude
Rises 21:52:04 0° 234° (SW) 5,102 15.8 -7.1°
Reaches altitude 10° 21:54:54 10° 230° (SW) 4,443 14.9 -7.6°
Maximum altitude 22:07:52 56° 156° (SSE) 3,310 12.7 -9.8°
Enters shadow 22:27:49 12° 87° (E) 6,660 13.7 -13.3°
Drops below altitude 10° 22:28:55 10° 86° (E) 6,875 - -13.5°
Sets 22:34:40 0° 84° (E) 7,971 - -14.5°
